Retour au catalogue

SCOUT G-1 DEB

ActifPO
NORAD 18561·DEBRIS·🇺🇸 United States

Lancé Sep 16, 1987 depuis Vandenberg Space Force Base

Loading…

Prochains Passages (prochaines 24 heures)

TLE

FraisSource: Space-Track

Époque: Sep 13, 2026, 08:57 UTC

1 18561U 87080G   26256.37360103  .00000311  00000-0  43329-3 0  9997
2 18561  90.3481 113.3103 0109445 168.4698 317.9286 13.53371137919273

Suivez SCOUT G-1 DEB en temps réel avec AllMySat

Download on the App Store